Portsmouth, NH

7:04 PM EDT on October 17, 2017 (GMT -0400)
Pease International Tradeport

Weather History for KPSM - February, 2014

Change the Weather History Date:

Thursday, February 20, 2014

  Actual Average Record
Temperature  
Mean Temperature 36 °F -  
Max Temperature 45 °F 35 °F 64 °F (1994)
Min Temperature 27 °F 19 °F -6 °F (1993)
Degree Days  
Heating Degree Days 29    
Moisture  
Dew Point 29 °F    
Average Humidity 78    
Maximum Humidity 100    
Minimum Humidity 38    
Precipitation  
Precipitation 0.12 in - - ()
Snow  
Snow 0.00 in - - ()
Snow Depth 21.00 in    
Sea Level Pressure  
Sea Level Pressure 30.11 in    
Wind  
Wind Speed 8 mph (SW)    
Max Wind Speed 14 mph    
Max Gust Speed -    
Visibility 7 miles    
Events Rain , Snow    
Averages and records for this station are not official NWS values.
T = Trace of Precipitation, MM = Missing Value Source: NWS Daily Summary

Daily Weather History Graph

Daily Weather History Graph

Search for Another Location

Airport or City:

Trip Planner

Search our weather history database for the weather conditions in past years. The results will help you decide how hot, cold, wet, or windy it might be!

Date:

Astronomy

Feb. 20, 2014 Rise Set
Actual Time 6:33 AM EST 5:21 PM EST
Civil Twilight 6:04 AM EST 5:49 PM EST
Nautical Twilight 5:31 AM EST 6:23 PM EST
Astronomical Twilight 4:58 AM EST 6:55 PM EST
Moon 11:22 PM EST (2/20) 9:05 AM EST (2/20)
Length of Visible Light 11h 45m
Length of Day
10h 47m
Waning Gibbous, 71% of the Moon is Illuminated
Feb 20
Waning Gibbous
Feb 22
Last Quarter
Mar 1
New
Mar 8
First Quarter
Mar 16
Full

Hourly Weather History & Observations

Time (EST) Temp. Windchill Dew Point Humidity Pressure Visibility Wind Dir Wind Speed Gust Speed Precip Events Conditions
12:58 AM 31.1 °F 23.7 °F 30.9 °F 99% 29.83 in 6.0 mi West 8.1 mph - N/A   Overcast
1:58 AM 30.6 °F 23.1 °F 30.4 °F 99% 29.88 in 7.0 mi West 8.1 mph - N/A   Mostly Cloudy
2:58 AM 31.5 °F 24.2 °F 30.9 °F 98% 29.90 in 7.0 mi WSW 8.1 mph - N/A   Partly Cloudy
3:58 AM 29.7 °F 22.0 °F 29.5 °F 99% 29.93 in 7.0 mi WSW 8.1 mph - N/A   Clear
4:58 AM 28.9 °F 22.8 °F 28.6 °F 99% 29.97 in 7.0 mi WSW 5.8 mph - N/A   Clear
5:58 AM 27.1 °F 18.9 °F 26.8 °F 99% 30.02 in 7.0 mi SSW 8.1 mph - N/A   Clear
6:58 AM 28.2 °F 19.5 °F 28.0 °F 99% 30.08 in 10.0 mi SSW 9.2 mph - N/A   Clear
7:58 AM 32.0 °F 25.6 °F 30.4 °F 94% 30.12 in 10.0 mi WSW 6.9 mph - N/A   Partly Cloudy
8:58 AM 34.5 °F 27.3 °F 30.6 °F 85% 30.12 in 10.0 mi SW 9.2 mph - N/A   Partly Cloudy
9:58 AM 37.9 °F 32.1 °F 30.7 °F 75% 30.14 in 10.0 mi WSW 8.1 mph - N/A   Partly Cloudy
10:58 AM 40.3 °F 34.9 °F 30.0 °F 67% 30.16 in 10.0 mi WSW 8.1 mph - N/A   Partly Cloudy
11:58 AM 42.6 °F 35.9 °F 27.1 °F 54% 30.14 in 10.0 mi West 12.7 mph - N/A   Partly Cloudy
12:58 PM 44.2 °F 39.2 °F 25.5 °F 48% 30.12 in 10.0 mi WSW 9.2 mph - N/A   Scattered Clouds
1:58 PM 45.7 °F 40.2 °F 24.4 °F 43% 30.12 in 10.0 mi SW 11.5 mph - N/A   Mostly Cloudy
2:58 PM 45.3 °F 40.6 °F 20.7 °F 38% 30.14 in 10.0 mi WSW 9.2 mph - N/A   Overcast
3:58 PM 45.0 °F 40.1 °F 20.7 °F 38% 30.16 in 10.0 mi SW 9.2 mph - N/A   Overcast
4:58 PM 43.9 °F 39.9 °F 22.3 °F 42% 30.18 in 10.0 mi SSW 6.9 mph - N/A   Overcast
5:58 PM 41.7 °F 37.3 °F 23.4 °F 48% 30.16 in 10.0 mi South 6.9 mph - N/A   Overcast
6:58 PM 39.7 °F - 26.8 °F 60% 30.16 in 10.0 mi South 2.3 mph - N/A   Overcast
7:58 PM 40.3 °F 38.2 °F 25.0 °F 54% 30.18 in 10.0 mi Variable 3.5 mph - N/A   Overcast
8:58 PM 39.6 °F 34.7 °F 24.1 °F 54% 30.19 in 10.0 mi SW 6.9 mph - N/A   Overcast
9:06 PM 41.0 °F 33.5 °F 26.6 °F 57% 30.19 in 7.0 mi SSW 13.8 mph - N/A Rain Light Rain
9:45 PM 35.6 °F 28.6 °F 33.8 °F 93% 30.22 in 4.0 mi SSW 9.2 mph - N/A Rain Light Rain
9:55 PM 35.2 °F 28.1 °F 34.9 °F 99% 30.23 in 4.0 mi SW 9.2 mph - 0.04 in Rain Light Rain
10:33 PM 33.8 °F 30.8 °F 33.8 °F 100% 30.20 in 3.0 mi SW 3.5 mph - N/A Rain Light Rain
10:55 PM 33.3 °F 30.2 °F 33.3 °F 100% 30.20 in 2.0 mi SSE 3.5 mph - 0.04 in Rain Light Rain
11:03 PM 33.8 °F 29.6 °F 33.8 °F 100% 30.18 in 1.5 mi SSE 4.6 mph - N/A Rain , Snow Light Snow
11:15 PM 32.0 °F 27.5 °F 32.0 °F 100% 30.17 in 1.2 mi SE 4.6 mph - N/A Snow Light Snow
11:36 PM 32.0 °F 26.4 °F 32.0 °F 100% 30.16 in 1.0 mi ESE 5.8 mph - N/A Snow Light Snow
11:55 PM 32.5 °F 28.1 °F 32.5 °F 100% 30.17 in 1.5 mi ESE 4.6 mph - 0.04 in Snow Light Snow